Flag for Canada Weather past 2 weeks in Saint John, New Brunswick, Canada

23 °F

Passing clouds.

Feels Like: 13 °F
Forecast: 22 / 32 °F
Wind: 9 mph from Northwest

Location: Saint John

Current Time: Nov 29, 2015 at 7:19:16 AM

Latest Report: Nov 29, 2015 at 7:00 AM

Visibility: 15 mi

Pressure: 30.14 "Hg

Humidity: 86%

Dew point: 19 °F

Location of Saint JohnLocation

Historic Weather in Saint John — Graph


Saint John temperature yesterday

Maximum temperature yesterday: 52 °F (at 12:00 AM)
Minimum temperature yesterday: 30 °F (at 10:00 PM)
Average temperature yesterday: 38 °F

Past Weeks' High & Low Weather Summary

High54 °F (Nov 22, 5:00 AM)100% (Nov 21, 11:00 PM)30.94 "Hg (Nov 21, 11:00 PM)
Low14 °F (Nov 25, 5:00 AM)40% (Nov 25, 3:00 PM)29.36 "Hg (Nov 14, 5:00 AM)
Average37 °F80%30.21 "Hg
* Reported Nov 14 5:00 AM — Nov 29 5:00 AM, Saint John, Weather by CustomWeather, © 2015

Note: Actual official high and low records may vary slightly from our data, if they occured in-between our weather recording intervals... More about our weather records


Saint John weather history for previous 24 hours

Time TempWeatherWind HumidityBarometerVisibility
5:00 AM
Sun, Nov 29
23 °FPassing clouds.9 mph86%30.11 "Hg15 mi
4:00 AM27 °FOvercast.8 mph80%30.11 "Hg15 mi
3:00 AM28 °FOvercast.12 mph80%30.11 "Hg15 mi
2:00 AM30 °FPassing clouds.10 mph80%30.13 "Hg15 mi
1:00 AM30 °FPassing clouds.6 mph86%30.13 "Hg15 mi
12:00 AM28 °FPassing clouds.3 mph86%30.13 "Hg15 mi
11:00 PM
Sat, Nov 28
30 °FPassing clouds.6 mph80%30.15 "Hg15 mi
10:00 PM30 °FOvercast.9 mph80%30.15 "Hg15 mi
9:00 PM32 °FLow clouds.9 mph87%30.15 "Hg15 mi
8:00 PM32 °FMostly cloudy.9 mph87%30.15 "Hg15 mi
7:00 PM32 °FMostly cloudy.10 mph87%30.15 "Hg15 mi
6:00 PM32 °FLight snow. Overcast.12 mph93%30.15 "Hg5 mi
5:00 PM32 °FOvercast.8 mph93%30.14 "Hg8 mi
4:00 PM34 °FMore clouds than sun.10 mph87%30.14 "Hg15 mi
3:00 PM36 °FMore clouds than sun.13 mph81%30.13 "Hg10 mi
2:00 PM36 °FLight snow. Mostly cloudy.13 mph87%30.14 "Hg10 mi
1:00 PM36 °FMore clouds than sun.12 mph87%30.15 "Hg15 mi
12:00 PM36 °FMore clouds than sun.12 mph87%30.16 "Hg15 mi
11:00 AM36 °FLight rain. Mostly cloudy.10 mph87%30.19 "Hg8 mi
10:00 AM34 °FMostly cloudy.12 mph93%30.19 "Hg15 mi
9:00 AM36 °FMostly cloudy.12 mph87%30.17 "Hg15 mi
8:46 AM36 °FMostly cloudy.13 mph87%30.16 "Hg10 mi
8:00 AM36 °FLight rain. Mostly cloudy.13 mph93%30.16 "Hg10 mi
7:00 AM37 °FLight rain. Fog.20 mph87%30.14 "Hg5 mi
Weather by CustomWeather, © 2015

See weather overviewHow to use our weather pages